太空蜂星座-146星 (SPACEBEE-146)

导读

SPACEBEE-146是美国蜂群技术公司打造的低轨卫星星座组成部分,于2022年5月2日发射升空。该卫星属于微小卫星范畴,属于0.25U立方体卫星,重量仅约0.25千克,主要承担卫星通信与数据中继任务,是公司构建全球微小卫星通信网络布局的重要单元,支撑商业低轨通信服务的部署拓展。

基本信息
目录编号:
52412
目录名称:
SPACEBEE-146
国际标识:
2022-047U
轨道中心:
EARTH
卫星名称:
太空蜂星座-146星
卫星全名:
太空蜂星座-146星 (SPACEBEE-146)
卫星状态:
已陨落 最后检测时间 2024-04-29
发射日期:
2022-05-02 UTC
国别 :
美国 (US)
星等 :
--
轨道信息
数据来源 国际轨道数据
星历时间: 2024-04-23T23:24:11+0800
轨道信息已过期811天
半长轴: 6558.707km
偏心率: 0.0014165
轨道倾角: 97.357°
近地点辐角 277.203°
升交点赤经 209.305°
平近点角 82.765°
近地点: 171.281km
远地点: 189.863km
周期: 88.102分钟
每日圈数: 16.344643
详细信息
平衡模式:
三轴稳定
覆盖范围:
全球
运营商:
蜂群科技公司
运营商所在国:
美国
制造商(研发单位):
蜂群科技公司
制造商所在国:
美国
使用方式:
暂无
卫星简介
太空蜜蜂(SpaceBEE)皮卫星建立在0.25U立方体卫星平台上,是私营公司蜂群科技公司(Swarm Technologies)开发的卫星星座的一部分。该星座计划由大约150颗皮卫星组成,提供双向卫星通信和数据中继。该卫星已陨落。